Fulton, NY

4:51 AM EDT on September 25, 2017 (GMT -0400)
Oswego County

Weather History for KFZY - May, 2014

Change the Weather History Date:

Sunday, May 18, 2014

  Actual Average (KSYR) Record (KSYR)
Temperature  
Mean Temperature 48 °F -  
Max Temperature 57 °F 67 °F 90 °F (1962)
Min Temperature 39 °F 46 °F 30 °F (1983)
Degree Days  
Heating Degree Days 17    
Moisture  
Dew Point 37 °F    
Average Humidity 68    
Maximum Humidity 93    
Minimum Humidity 33    
Precipitation  
Precipitation 0.03 in - - ()
Sea Level Pressure  
Sea Level Pressure 30.23 in    
Wind  
Wind Speed 3 mph (WNW)    
Max Wind Speed 17 mph    
Max Gust Speed -    
Visibility 9 miles    
Events Rain    
Averages and records for this station are not official NWS values.
T = Trace of Precipitation, MM = Missing Value Source: NWS Daily Summary

Daily Weather History Graph

Daily Weather History Graph

Search for Another Location

Airport or City:

Trip Planner

Search our weather history database for the weather conditions in past years. The results will help you decide how hot, cold, wet, or windy it might be!

Date:

Astronomy

May. 18, 2014 Rise Set
Actual Time 5:38 AM EDT 8:26 PM EDT
Civil Twilight 5:05 AM EDT 8:59 PM EDT
Nautical Twilight 4:23 AM EDT 9:41 PM EDT
Astronomical Twilight 3:34 AM EDT 10:30 PM EDT
Moon No Moon Rise 9:25 AM EDT (5/18)
Length of Visible Light 15h 54m
Length of Day
14h 47m
Waning Gibbous, 81% of the Moon is Illuminated
May 18
Waning Gibbous
May 21
Last Quarter
May 28
New
Jun 5
First Quarter
Jun 13
Full

Hourly Weather History & Observations

Time (EDT) Temp. Windchill Dew Point Humidity Pressure Visibility Wind Dir Wind Speed Gust Speed Precip Events Conditions
12:54 AM 39.0 °F - 36.0 °F 89% 30.18 in 8.0 mi Calm Calm - N/A   Clear
1:54 AM 39.0 °F - 36.0 °F 89% 30.19 in 5.0 mi Calm Calm - N/A   Clear
2:54 AM 39.0 °F - 37.0 °F 93% 30.19 in 6.0 mi Calm Calm - N/A   Overcast
3:54 AM 43.0 °F - 39.0 °F 86% 30.20 in 10.0 mi Calm Calm - N/A   Overcast
4:54 AM 43.0 °F - 39.0 °F 86% 30.21 in 10.0 mi Calm Calm - N/A   Overcast
5:54 AM 44.1 °F - 41.0 °F 89% 30.23 in 7.0 mi Calm Calm - 0.00 in Rain Light Rain
6:54 AM 44.1 °F 42.5 °F 41.0 °F 89% 30.25 in 3.0 mi SW 3.5 mph - 0.03 in Rain Light Rain
8:54 AM 48.0 °F - 43.0 °F 83% 30.27 in 10.0 mi North 3.5 mph - N/A   Overcast
9:08 AM 48.9 °F - 43.0 °F 80% 30.26 in 10.0 mi West 3.5 mph - N/A   Overcast
9:31 AM 48.9 °F - 43.0 °F 80% 30.27 in 10.0 mi WNW 3.5 mph - N/A   Overcast
9:54 AM 50.0 °F - 43.0 °F 77% 30.27 in 10.0 mi Variable 4.6 mph - N/A   Overcast
10:54 AM 52.0 °F - 43.0 °F 71% 30.27 in 10.0 mi Calm Calm - N/A   Scattered Clouds
11:54 AM 55.0 °F - 43.0 °F 64% 30.27 in 10.0 mi WNW 5.8 mph - N/A   Mostly Cloudy
12:54 PM 57.0 °F - 41.0 °F 55% 30.26 in 10.0 mi West 9.2 mph - N/A   Scattered Clouds
1:54 PM 57.9 °F - 35.1 °F 42% 30.25 in 10.0 mi WSW 13.8 mph - N/A   Clear
2:54 PM 57.0 °F - 33.1 °F 40% 30.24 in 10.0 mi West 12.7 mph - N/A   Clear
3:54 PM 57.0 °F - 30.9 °F 37% 30.22 in 10.0 mi WNW 17.3 mph - N/A   Clear
4:54 PM 57.9 °F - 30.0 °F 35% 30.22 in 10.0 mi NNW 13.8 mph - N/A   Clear
5:54 PM 57.9 °F - 30.0 °F 35% 30.22 in 10.0 mi NNW 8.1 mph - N/A   Clear
6:54 PM 57.0 °F - 28.0 °F 33% 30.22 in 10.0 mi North 6.9 mph - N/A   Scattered Clouds
7:54 PM 53.1 °F - 30.9 °F 43% 30.22 in 10.0 mi North 3.5 mph - N/A   Partly Cloudy
8:54 PM 48.0 °F - 33.1 °F 56% 30.22 in 10.0 mi Calm Calm - N/A   Clear
9:54 PM 43.0 °F - 35.1 °F 74% 30.22 in 10.0 mi Calm Calm - N/A   Clear
10:54 PM 42.1 °F - 36.0 °F 79% 30.22 in 10.0 mi Calm Calm - N/A   Clear
11:54 PM 39.9 °F - 37.0 °F 89% 30.22 in 10.0 mi Calm Calm - N/A   Clear